{"data":{"norad_id":66125,"epoch":"2026-05-24T23:13:33.130848Z","epoch_age_seconds":71852,"freshness":"FRESH","line1":"1 66125U 25237M   26144.96774457  .00009408  00000+0  32937-3 0  9992","line2":"2 66125  53.1605  44.9888 0001259  90.4791 269.6354 15.30198446 34294","mean_motion":15.30198446,"eccentricity":0.0001259,"inclination_deg":53.1605,"raan_deg":44.9888,"arg_perigee_deg":90.4791,"mean_anomaly_deg":269.6354,"bstar":0.00032937,"rev_number":3429,"period_min":94.105441275556,"perigee_km":474.35687177743,"apogee_km":476.08254699685,"semimajor_km":6853.3567093871,"source":"CELESTRAK","updated_at":"2026-05-25T13:38:21.063898Z"}}